Regional Weather Roundup
Issued by NWS

Home | Current Version | Previous Version | Graphics & Text | Print | Product List | Glossary On
Versions: 1 2 3 4 5 6 7 8 9 10 11 12 13 14 15 16 17 18 19 20 21 22 23 24 25 26 27 28 29 30 31 32 33 34 35 36 37 38 39 40 41 42 43 44 45 46 47 48 49 50
000
ASUS45 KBOU 192007
RWRCO

WEATHER ROUNDUP FOR COLORADO
NATIONAL WEATHER SERVICE DENVER/BOULDER CO
200 PM MDT TUE SEP 19 2017

NOTE: "FAIR" INDICATES FEW OR NO CLOUDS BELOW 12000 FEET WITH NO
SIGNIFICANT WEATHER AND/OR OBSTRUCTIONS TO VISIBILITY.

COZ001>005-013-030-031-192100-
...NORTHWEST COLORADO...

CITY           SKY/WX    TMP DP  RH WIND       PRES   REMARKS
CRAIG          CLOUDY    52  34  50 N35G43    29.86R
HAYDEN         PTSUNNY   57  34  41 NW22G28   29.83R
MEEKER         PTSUNNY   71  24  17 SW21G38   29.81F
RABBIT EARS PA CLOUDY    52  25  35 SW9G26    30.00F
STEAMBOAT SPGS PTSUNNY   65  26  22 W21G45    29.80S
WALDEN         FAIR      64  21  19 SW30G39   29.85S
$$

COZ006>008-011-192100-
...WEST CENTRAL VALLEYS...

CITY           SKY/WX    TMP DP  RH WIND       PRES   REMARKS
GRAND JUNCTION FAIR      79  24  13 SW8       29.76F
MONTROSE       FAIR      75  21  13 SW13      29.87F
EAGLE          FAIR      74  23  15 W24G37    29.82F
RIFLE          FAIR      78  22  12 W26G38    29.78F
DELTA          FAIR      81  22  11 SW21G28   29.82F
NUCLA          FAIR      75  21  13 SW22G32   29.94F
$$

COZ017>023-064>068-192100-
...SOUTHWEST COLORADO...

CITY           SKY/WX    TMP DP  RH WIND       PRES   REMARKS
DURANGO        FAIR      71  22  15 W14G29    30.02F
CORTEZ         FAIR      76  14   9 SW20G31   29.96F
PAGOSA SPRINGS FAIR      67  14  13 SW12G23   30.07F
TELLURIDE      FAIR      65  13  13 S14G29    30.09F
WOLF CREEK PAS NOT AVBL
$$

COZ009-010-012-014-032>034-037-058>063-192100-
...CENTRAL COLORADO...

CITY           SKY/WX    TMP DP  RH WIND       PRES   REMARKS
ASPEN          FAIR      71  16  12 SW14G29   29.87F
BUENA VISTA    FAIR      74   5   7 SW18G35   29.86F
COPPER MTN     FAIR      55   9  15 W29G46    30.10F
BERTHOUD PASS  FAIR      48  41  76 MISG      30.11F
COTTONWOOD PAS FAIR      64 -15   4 W30G64    29.98F
GUNNISON       FAIR      70  18  13 W29G43    29.91F
KREMMLING      FAIR      77  10   8 SW25G36   29.86S
LEADVILLE      FAIR      62   9  12 SW13G22   29.97F
MONARCH PASS   FAIR      52   9  17 W51G60    30.24F
SALIDA         FAIR      77  11   8 SW15G28   29.94F
SUNLIGHT       FAIR      55  25  30 SW15G37   30.09S
WILKERSON PASS FAIR      59   5  11 SW21G36   30.07F
$$

COZ069>075-192100-
...SAN LUIS VALLEY/SANGRE DE CRISTO MOUNTAINS...

CITY           SKY/WX    TMP DP  RH WIND       PRES   REMARKS
ALAMOSA        FAIR      70  16  12 SW32      29.97F
DEL NORTE      FAIR      68  20  15 SW29G36   29.98F
LA VETA PASS   FAIR      59  19  21 MISG      30.16S
SAGUACHE       FAIR      73  23  15 NW6       29.90F
$$

COZ035-036-038>040-192100-
...NORTHERN COLORADO FRONT RANGE...

CITY           SKY/WX    TMP DP  RH WIND       PRES   REMARKS
DENVER INTL AP PTSUNNY   85  12   6 SE9       29.61F
DMNS CITY PARK   N/A     87  19   8 E6G14     29.58F
AURORA         PTSUNNY   86  12   6 SW5       29.62F
FRONT RANGE AP PTSUNNY   86  16   7 SE10G18   29.63F
ERIE MUNI ARPT FAIR      85  10   6 E5        29.64F
BOULDER MUN AP FAIR      84  25  11 NE10      29.60F
CENTENNIAL     FAIR      86   6   5 SW13G31   29.62F
BROOMFIELD     PTSUNNY   84  19   9 E12       29.64F
FORT COLLINS   FAIR      87  23   9 W23G36    29.60F
LONGMONT       FAIR      88  24   9 E8        29.61F
$$

COZ041-046-047-076>085-087-088-192100-
...PIKES PEAK/PALMER DIVIDE AND SOUTHERN FOOTHILLS...

CITY           SKY/WX    TMP DP  RH WIND       PRES   REMARKS
COLO. SPRINGS  PTSUNNY   82  19   9 S29G36    29.73F
A. F. ACADEMY  FAIR      81  12   7 S15G23    29.73F
SCHRIEVER AFB  FAIR      79  15   9 S28G35    29.75F
CHEYENNE MTN   NOT AVBL
ELLICOTT       NOT AVBL
FALCON         FAIR      76  15   9 S23G35    29.79F
FORT CARSON    FAIR      82  12   7 S28G35    29.70F
LIMON          FAIR      79  18  10 SW21G30   29.68F
MONUMENT HILL  FAIR      75  18  11 SW18G30   29.77F
CANON CITY     SUNNY     86  23  10 S6        29.69F
WALSENBURG     NOT AVBL
TRINIDAD       FAIR      76  31  19 SW10      29.81F
$$

COZ042>045-048>051-090-091-192100-
...NORTHEAST COLORADO...

CITY           SKY/WX    TMP DP  RH WIND       PRES   REMARKS
GREELEY ARPT   FAIR      86  20   9 CALM      29.59F
AKRON          FAIR      84  15   7 S14       29.61F
BURLINGTON     FAIR      88  23   9 SW16G25   29.62F
WRAY           FAIR      91  21   8 SW16G22   29.56F
YUMA           FAIR      86   9   5 SW17G23   29.58F
STERLING       FAIR      81  34  18 SW8       29.56F
HOLYOKE        FAIR      88  30  12 S7        29.57F
FORT MORGAN    FAIR      84  29  13 SE3       29.60F
$$

COZ086-089-092>099-192100-
...SOUTHEAST COLORADO...

CITY           SKY/WX    TMP DP  RH WIND       PRES   REMARKS
PUEBLO         FAIR      84  19   9 S6        29.66F
LA JUNTA       FAIR      86  18   8 SW17G29   29.67F
LAMAR          FAIR      93  19   7 W17G23    29.61F
SPRINGFIELD    NOT AVBL
$$



USA.gov is the U.S. government's official web portal to all federal, state and local government web resources and services.